Regional Weather Roundup
Issued by NWS

Home | Current Version | Previous Version | Text Only | Print | Product List | Glossary On
Versions: 1 2 3 4 5 6 7 8 9 10 11 12 13 14 15 16 17 18 19 20 21 22 23 24 25 26 27 28 29 30 31 32 33 34 35 36 37 38 39 40 41 42 43 44 45 46 47 48 49 50
000
ASUS43 KLSX 271659
RWRMO

WEATHER SUMMARY FOR MISSOURI
NATIONAL WEATHER SERVICE SPRINGFIELD MO
1100 AM CST THU NOV 27 2014

NOTE: "FAIR" INDICATES FEW OR NO CLOUDS BELOW 12,000 FEET WITH NO
       SIGNIFICANT WEATHER AND/OR OBSTRUCTIONS TO VISIBILITY.
       CURRENT SKY AND/OR WEATHER CONDITIONS ARE NOT AVAILABLE FOR
       CHILLICOTHE AND FARMINGTON.

MOZ001>031-035>038-043-044-053-054-271800-
...NORTHERN AND WESTERN MISSOURI...

CITY           SKY/WX    TMP DP  RH WIND       PRES   REMARKS
KANSAS CTY INT PTSUNNY   27  20  75 W5        30.53S WCI  22
KANSAS C DTWN  CLOUDY    30  20  66 SW5       30.54F WCI  25
LEE`S SUMMIT   CLOUDY    29  20  69 CALM      30.53S
ST JOSEPH      CLOUDY    24  16  71 N6        30.55F WCI  17
CHILLICOTHE      N/A     27  17  66 NW6       30.54F WCI  20
KIRKSVILLE     MOSUNNY   24  18  77 NW8       30.50F WCI  15

$$
MOZ066>068-077>081-088>096-101>105-271800-
...SOUTHWEST MISSOURI...

CITY           SKY/WX    TMP DP  RH WIND       PRES   REMARKS
SPRINGFIELD    MOSUNNY   35  24  64 CALM      30.50R
JOPLIN         SUNNY     34  24  67 CALM      30.54F

$$
MOZ032>034-039>042-045>050-055>058-069>072-271800-
...CENTRAL MISSOURI...

CITY           SKY/WX    TMP DP  RH WIND       PRES   REMARKS
COLUMBIA       PTSUNNY   32  23  69 W13       30.51S WCI  22
JEFFERSON CITY PTSUNNY   34  23  64 NW10      30.54R WCI  26
ROLLA          CLOUDY    29  24  82 W10       30.48S WCI  20
SEDALIA        CLOUDY    30  22  72 NW5       30.54S WCI  25
WHITEMAN AFB   PTSUNNY   28  21  74 VRB3      30.53S
WARRENSBURG    CLOUDY    30  21  69 CALM      30.54F
OSAGE BEACH    CLOUDY    30  21  69 N5        30.53R WCI  25

$$
MOZ051-052-059>065-271800-
...EAST CENTRAL MISSOURI...

CITY           SKY/WX    TMP DP  RH WIND       PRES   REMARKS
ST LOUIS INTL  CLOUDY    32  24  72 NW10      30.48F WCI  24
SPIRIT OF STL  CLOUDY    32  23  69 NW10      30.49S WCI  24
ST CHARLES     PTSUNNY   31  22  69 NW10      30.49S WCI  22

$$
MOZ072>076-082>087-097>100-106>115-271800-
...SOUTH CENTRAL AND SOUTHEAST MISSOURI...

CITY           SKY/WX    TMP DP  RH WIND       PRES   REMARKS
CAPE GIRARDEAU CLOUDY    33  27  78 N9        30.51S WCI  25
FARMINGTON     CLOUDY    32  25  74 NW9       30.48F WCI  24
POPLAR BLUFF   CLOUDY    38  28  67 N10       30.50S
WEST PLAINS    PTSUNNY   35  25  66 N5        30.49S

$$


USA.gov is the U.S. government's official web portal to all federal, state and local government web resources and services.